{"data":{"norad_id":53258,"epoch":"2026-09-20T00:31:25.595328Z","epoch_age_seconds":116552,"freshness":"FRESH","line1":"1 53258U 22086S   26263.02182402  .00010675  00000+0  35513-3 0  9997","line2":"2 53258  53.1576  36.0256 0000729  76.3257 283.7825 15.31712196230479","mean_motion":15.31712196,"eccentricity":7.29e-5,"inclination_deg":53.1576,"raan_deg":36.0256,"arg_perigee_deg":76.3257,"mean_anomaly_deg":283.7825,"bstar":0.00035513,"rev_number":23047,"period_min":94.012439396937,"perigee_km":470.20435934286,"apogee_km":471.20292030815,"semimajor_km":6848.8406398255,"source":"CELESTRAK","updated_at":"2026-09-20T09:00:40.215630Z"}}